Tracking 33446 objects as of 10-Mar-2026
HD Live streaming from Space Station
objects crossing your sky now

HULIANWANG DIGUI-94

Track HULIANWANG DIGUI-94 now!
10-day predictions


NORAD ID: 66002
Int'l Code: 2025-231H
Perigee: 1,155.9 km
Apogee: 1,156.9 km
Inclination: 50.0 °
Period: 108.3 minutes
Semi major axis: 7527 km
RCS: Unknown
Launch date: October 16, 2025
Source: People's Republic of China (PRC)
Launch site: Wenchang Satellite Launch Center (WSC)
Your satellite tracking list
Your tracking list is empty




NASA's NSSDC Master Catalog

Two Line Element Set (TLE):
1 66002U 25231H   26069.18739938 -.00000071  00000-0  11393-3 0  9997
2 66002  50.0055 170.6475 0000652 212.8856 147.1976 13.29331227 19723
Source of the keplerian elements: AFSPC